Find Starlink 2002

NORAD ID: 47597 Int'l Des: 2021-009 Owner: SPXS Country: US Constellation: starlink decayed
LEOCIRCULAR

Re-entered — 29. März 2025

3D-Globus wird geladen...

About Starlink 2002

Starlink 2002 (NORAD 47597) is a starlink constellation satellite (v1.0) launched Feb 4, 2021 by SPXS of US. It re-entered the atmosphere on Mar 29, 2025. with a mass of 260.00 kg.

Über Starlink 2002

Beschreibung wird geladen...

Höhenverlauf

Loading altitude history...

Zweizeiliger Elementsatz

1 47597U 21009BB 25088.52138281 .21124012 12513-4 70351-3 0 9995
2 47597 53.0307 102.6232 0003822 291.6522 207.8823 16.44596640229761
Epoch: 29. März 2025 • Age: 10752 hours

Aktueller Status

Position data unavailable
Startdatum 4. Feb. 2021
Alter 5.3 years
Verglühungsdatum 29. März 2025
Typ internet

Technische Details

Klassifizierung Payload
Masse 260.00 kg
Trockenmasse 248.00 kg
Gesamtmasse 260.00 kg
Länge 0.20 m
Durchmesser 2.80 m
Spannweite 9.00 m
Form Box + pan
Hersteller SPXS
Bus-Typ Starlink
Phasenstatus Unknown Transfer Status
Besitzer/Staat SPXS/US

Most Searched